Location: Augirein
(42.9320°N, 0.9181°E)
Time: 20:39:36
(UTC+00:00)

X-37B - Pass Details

Date: 25 September 2021
Orbit: 385 x 389 km, 45.0° (Epoch: 17 October)

Event Time Altitude Azimuth Distance (km) Brightness Sun altitude
Exits shadow 03:40:57 34° 96° (E) 659 2.2 -23.4°
Drops below altitude 10° 03:42:59 10° 78° (ENE) 1,414 4.5 -23.0°
Sets 03:45:05 0° 74° (ENE) 2,272 5.9 -22.7°
